TimeAKDT,TemperatureF,Dew PointF,Humidity,Sea Level PressureIn,VisibilityMPH,Wind Direction,Wind SpeedMPH,Gust SpeedMPH,PrecipitationIn,Events,Conditions,WindDirDegrees,DateUTC
12:53 AM,-9.0,-17.0,68,29.75,10.0,Calm,Calm,-,N/A,,Clear,0,2013-04-09 08:53:00
1:53 AM,-9.9,-18.0,68,29.73,10.0,WSW,3.5,-,N/A,,Clear,240,2013-04-09 09:53:00
2:53 AM,-8.0,-17.0,65,29.70,10.0,SW,4.6,-,N/A,,Clear,230,2013-04-09 10:53:00
3:53 AM,-15.0,-20.9,75,29.69,10.0,Calm,Calm,-,N/A,,Clear,0,2013-04-09 11:53:00
4:53 AM,-18.0,-24.0,74,29.66,10.0,Calm,Calm,-,N/A,,Clear,0,2013-04-09 12:53:00
5:53 AM,-20.0,-26.0,74,29.63,10.0,SSW,3.5,-,N/A,,Clear,200,2013-04-09 13:53:00
6:53 AM,-14.1,-20.0,75,29.61,10.0,Calm,Calm,-,N/A,,Clear,0,2013-04-09 14:53:00
7:53 AM,-18.0,-25.1,70,29.58,10.0,Calm,Calm,-,N/A,,Clear,0,2013-04-09 15:53:00
8:53 AM,-11.9,-18.0,74,29.56,10.0,Calm,Calm,-,N/A,,Clear,0,2013-04-09 16:53:00
9:53 AM,-5.1,-16.1,59,29.52,10.0,SW,5.8,-,N/A,,Clear,230,2013-04-09 17:53:00
10:53 AM,1.9,-15.0,45,29.50,10.0,Calm,Calm,-,N/A,,Clear,0,2013-04-09 18:53:00
11:03 AM,1.4,-14.8,47,29.48,8.0,Calm,Calm,-,N/A,,Partly Cloudy,0,2013-04-09 19:03:00
11:53 AM,3.9,-15.0,41,29.49,10.0,East,3.5,-,N/A,,Clear,100,2013-04-09 19:53:00
12:53 PM,8.1,-14.1,36,29.47,10.0,Calm,Calm,-,N/A,,Clear,0,2013-04-09 20:53:00
1:53 PM,10.0,-13.0,35,29.44,10.0,NE,5.8,-,N/A,,Scattered Clouds,40,2013-04-09 21:53:00
2:53 PM,10.9,-9.9,39,29.44,10.0,North,8.1,-,N/A,,Overcast,360,2013-04-09 22:53:00
3:53 PM,10.9,-9.9,39,29.44,10.0,Variable,5.8,-,N/A,,Overcast,0,2013-04-09 23:53:00
4:53 PM,10.0,-9.9,40,29.44,10.0,NNW,5.8,-,N/A,,Mostly Cloudy,340,2013-04-10 00:53:00
5:53 PM,9.0,-9.9,42,29.45,10.0,NW,5.8,-,N/A,,Overcast,320,2013-04-10 01:53:00
6:53 PM,8.1,-6.0,53,29.46,10.0,NNW,8.1,-,N/A,,Overcast,330,2013-04-10 02:53:00
7:53 PM,8.1,-8.0,48,29.48,10.0,NNW,3.5,-,N/A,,Overcast,330,2013-04-10 03:53:00
8:53 PM,7.0,-9.0,48,29.49,10.0,NNW,3.5,-,N/A,,Overcast,330,2013-04-10 04:53:00
9:53 PM,6.1,-8.0,53,29.52,10.0,Calm,Calm,-,N/A,,Overcast,0,2013-04-10 05:53:00
10:53 PM,3.9,-8.0,58,29.54,10.0,Calm,Calm,-,N/A,,Overcast,0,2013-04-10 06:53:00
11:53 PM,3.0,-7.1,63,29.56,8.0,Calm,Calm,-,N/A,,Overcast,0,2013-04-10 07:53:00